Malaga, Spain

7:57 AM CET on February 07, 2016 (GMT +0100)
Malaga

Weather History for LEMG - December, 2012

Change the Weather History Date:

Monday, December 24, 2012

  Actual Average Record
Temperature  
Mean Temperature 52 °F -  
Max Temperature 59 °F 59 °F 71 °F (2002)
Min Temperature 46 °F 44 °F 37 °F (1999)
Degree Days  
Heating Degree Days 12    
Growing Degree Days 2 (Base 50)    
Moisture  
Dew Point 51 °F    
Average Humidity 98    
Maximum Humidity 100    
Minimum Humidity 88    
Precipitation  
Precipitation 0.00 in 0.11 in - ()
Sea Level Pressure  
Sea Level Pressure 30.09 in    
Wind  
Wind Speed 2 mph ()    
Max Wind Speed 7 mph    
Max Gust Speed -    
Visibility 2.2 miles    
Events Fog    
Averages and records for this station are not official NWS values.
T = Trace of Precipitation, MM = Missing Value Source: Averaged Metar Reports

Daily Weather History Graph

Daily Weather History Graph

Search for Another Location

Airport or City:

Trip Planner

Search our weather history database for the weather conditions in past years. The results will help you decide how hot, cold, wet, or windy it might be!

Date:

Astronomy

Dec. 24, 2012 Rise Set
Actual Time 8:28 AM CET 6:07 PM CET
Civil Twilight 7:59 AM CET 6:36 PM CET
Nautical Twilight 7:26 AM CET 7:08 PM CET
Astronomical Twilight 6:55 AM CET 7:40 PM CET
Moon 3:23 PM CET (12/24) 4:55 AM CET (12/24)
Length of Visible Light 10h 37m
Length of Day
9h 39m
Waxing Gibbous, 86% of the Moon is Illuminated
Dec 24
Waxing Gibbous
Dec 28
Full
Jan 5
Last Quarter
Jan 11
New
Jan 19
First Quarter

Hourly Weather History & Observations

Time (CET) Temp. Windchill Dew Point Humidity Pressure Visibility Wind Dir Wind Speed Gust Speed Precip Events Conditions
12:00 AM 51.8 °F - 51.8 °F 100% 30.18 in 0.3 mi Variable 1.2 mph - N/A Fog Fog
12:30 AM 53.6 °F - 53.6 °F 100% 30.18 in 0.2 mi Calm Calm - N/A Fog Fog
1:00 AM 53.6 °F - 53.6 °F 100% 30.18 in 0.2 mi Variable 1.2 mph - N/A Fog Fog
1:30 AM 53.6 °F - 53.6 °F 100% 30.18 in 0.2 mi Calm Calm - N/A Fog Fog
2:00 AM 51.8 °F - 51.8 °F 100% 30.15 in 0.2 mi NNW 2.3 mph - N/A Fog Fog
2:30 AM 51.8 °F - 51.8 °F 100% 30.15 in 0.2 mi NNW 1.2 mph - N/A Fog Fog
3:00 AM 51.8 °F - 51.8 °F 100% 30.15 in 0.2 mi NW 1.2 mph - N/A Fog Fog
3:30 AM 50.0 °F - 50.0 °F 100% 30.15 in 0.2 mi NW 2.3 mph - N/A Fog Fog
4:00 AM 48.2 °F - 48.2 °F 100% 30.15 in 0.2 mi NW 2.3 mph - N/A Fog Fog
4:30 AM 46.4 °F 45.2 °F 46.4 °F 100% 30.12 in 0.2 mi WNW 3.5 mph - N/A Fog Fog
5:00 AM 46.4 °F 44.3 °F 46.4 °F 100% 30.12 in 0.3 mi WNW 4.6 mph - N/A Fog Fog
5:30 AM 44.6 °F 41.4 °F 44.6 °F 100% 30.12 in 0.4 mi West 5.8 mph - N/A Fog Fog
6:00 AM 46.4 °F 44.3 °F 46.4 °F 100% 30.12 in 0.4 mi WNW 4.6 mph - N/A Fog Patches of Fog
6:18 AM 46.4 °F 45.2 °F 46.4 °F 100% 30.12 in 1.2 mi WNW 3.5 mph - N/A Fog Patches of Fog
6:30 AM 46.4 °F - 46.4 °F 100% 30.12 in 1.2 mi NW 1.2 mph - N/A Fog Patches of Fog
7:00 AM 47 °F - 47 °F 99% 30.14 in 2 mi WNW 1.2 mph - -   Mist
7:00 AM 46.4 °F - 46.4 °F 100% 30.12 in 1.9 mi WNW 1.2 mph - N/A   Scattered Clouds
7:30 AM 46.4 °F - 46.4 °F 100% 30.12 in 3.1 mi WNW 1.2 mph - N/A   Mostly Cloudy
8:00 AM 48.2 °F - 48.2 °F 100% 30.12 in 1.9 mi NW 1.2 mph - N/A   Mostly Cloudy
8:08 AM 46.4 °F - 46.4 °F 100% 30.12 in 1.2 mi NW 1.2 mph - N/A   Mostly Cloudy
8:30 AM 46.4 °F 45.2 °F 46.4 °F 100% 30.12 in 0.9 mi NW 3.5 mph - N/A Fog Patches of Fog
8:31 AM 46.4 °F - 46.4 °F 100% 30.12 in 0.6 mi NW 2.3 mph - N/A Fog Patches of Fog
8:39 AM 46.4 °F - 46.4 °F 100% 30.12 in 0.4 mi NW 2.3 mph - N/A Fog Fog
8:49 AM 46.4 °F - 46.4 °F 100% 30.12 in 0.3 mi NW 2.3 mph - N/A Fog Fog
9:00 AM 46.4 °F - 46.4 °F 100% 30.12 in 0.3 mi NW 2.3 mph - N/A Fog Fog
9:30 AM 46.4 °F - 46.4 °F 100% 30.15 in 0.3 mi Variable 1.2 mph - N/A Fog Fog
9:44 AM 46.4 °F - 46.4 °F 100% 30.15 in 0.9 mi NW 2.3 mph - N/A Fog Patches of Fog
10:00 AM 46.4 °F - 46.4 °F 100% 30.15 in 1.2 mi NW 2.3 mph - N/A Fog Patches of Fog
10:15 AM 46.4 °F - 46.4 °F 100% 30.15 in 2.5 mi NW 2.3 mph - N/A Fog Patches of Fog
10:30 AM 46.4 °F - 46.4 °F 100% 30.15 in 3.1 mi WNW 2.3 mph - N/A Fog Patches of Fog
10:36 AM 48.2 °F - 48.2 °F 100% 30.15 in 4.3 mi WNW 2.3 mph - N/A Fog Patches of Fog
11:00 AM 50.0 °F - 50.0 °F 100% 30.15 in 6.2 mi Variable 1.2 mph - N/A Fog Partly Cloudy
11:30 AM 53.6 °F - 53.6 °F 100% 30.15 in 6.2 mi Calm Calm - N/A Fog Partly Cloudy
12:00 PM 53.6 °F - 53.6 °F 100% 30.15 in 6.2 mi Variable 2.3 mph - N/A Fog Patches of Fog
12:30 PM 55.4 °F - 55.4 °F 100% 30.12 in 6.2 mi Variable 1.2 mph - N/A Fog Partly Cloudy
1:00 PM 56 °F - 54 °F 90% 30.14 in 7 mi SE 4.6 mph - -   Partly Cloudy
1:00 PM 55.4 °F - 55.4 °F 100% 30.09 in 6.2 mi SE 4.6 mph - N/A Fog Partly Cloudy
1:30 PM 57.2 °F - 55.4 °F 94% 30.09 in 6.2 mi SE 3.5 mph - N/A   Partly Cloudy
2:00 PM 57.2 °F - 55.4 °F 94% 30.06 in 6.2 mi SE 3.5 mph - N/A   Partly Cloudy
2:30 PM 59.0 °F - 57.2 °F 94% 30.04 in 6.2 mi Variable 2.3 mph - N/A   Partly Cloudy
3:00 PM 59.0 °F - 57.2 °F 94% 30.04 in 6.2 mi SSE 4.6 mph - N/A   Partly Cloudy
3:30 PM 57.2 °F - 55.4 °F 94% 30.04 in - SE 4.6 mph - N/A   Clear
4:00 PM 57.2 °F - 55.4 °F 94% 30.01 in 6.2 mi SSE 5.8 mph - N/A   Partly Cloudy
4:30 PM 57.2 °F - 55.4 °F 94% 30.01 in 6.2 mi ESE 3.5 mph - N/A   Partly Cloudy
5:00 PM 57.2 °F - 53.6 °F 88% 30.01 in 6.2 mi East 2.3 mph - N/A   Partly Cloudy
5:30 PM 55.4 °F - 53.6 °F 94% 30.01 in 4.3 mi ESE 5.8 mph - N/A Fog Scattered Clouds
5:43 PM 55.4 °F - 53.6 °F 94% 30.01 in 2.5 mi ESE 5.8 mph - N/A Fog Patches of Fog
6:00 PM 55.4 °F - 53.6 °F 94% 30.01 in 2.5 mi ESE 6.9 mph - N/A   Mostly Cloudy
6:30 PM 53.6 °F - 53.6 °F 100% 30.01 in 1.2 mi ESE 5.8 mph - N/A   Mostly Cloudy
7:00 PM 55 °F - 53 °F 90% 30.04 in 1 mi ESE 4.6 mph - -   Mist
7:00 PM 53.6 °F - 53.6 °F 100% 30.01 in 1.2 mi ESE 4.6 mph - N/A   Mostly Cloudy
7:30 PM 53.6 °F - 53.6 °F 100% 30.01 in 1.2 mi Variable 2.3 mph - N/A   Mostly Cloudy
8:00 PM 53.6 °F - 53.6 °F 100% 30.01 in 1.2 mi South 3.5 mph - N/A   Mostly Cloudy
8:30 PM 53.6 °F - 53.6 °F 100% 30.01 in 1.2 mi Variable 1.2 mph - N/A   Mostly Cloudy
9:00 PM 53.6 °F - 53.6 °F 100% 30.01 in 1.2 mi South 1.2 mph - N/A   Mostly Cloudy
9:30 PM 53.6 °F - 53.6 °F 100% 30.01 in 1.2 mi Calm Calm - N/A   Mostly Cloudy
10:00 PM 53.6 °F - 53.6 °F 100% 30.01 in 1.2 mi Calm Calm - N/A   Mostly Cloudy
10:15 PM 53.6 °F - 53.6 °F 100% 30.01 in 0.7 mi Variable 1.2 mph - N/A   Mostly Cloudy
10:30 PM 53.6 °F - 53.6 °F 100% 30.01 in 0.5 mi Calm Calm - N/A Fog Fog
11:00 PM 53.6 °F - 51.8 °F 94% 30.01 in 0.5 mi Calm Calm - N/A Fog Fog
11:30 PM 51.8 °F - 51.8 °F 100% 30.01 in 0.5 mi West 3.5 mph - N/A Fog Fog